Weather in Buldan

Turkey     38°02′47″N   28°49′33″E
temp.,
°C
wind,
m/s
gust,
m/s
humid.,
%
clouds,
%
prec.,
mm/h
press.,
hPa
HPBL,
m
7 may, fri
fri700:00+15nnw22631 0.0 101616
03:00+14nne12736 0.0 101512
06:00+12ne11775 0.0 101512
09:00+19e22514 0.0 1016564
12:00+24se213388 0.0 10151156
15:00+28sw24199 0.0 10131798
18:00+27wsw341993 0.0 10121498
21:00+22w332865 0.0 101331
8 may, sat
sat800:00+19w333552 0.0 101428
03:00+18wsw224177 0.0 101311
06:00+15s1147100 0.0 101211
09:00+23sw1230100 0.0 1013231
12:00+28s3520100 0.0 10121156
15:00+29ssw482094 0.0 10091860
18:00+28wnw47254 0.0 10092054
21:00+19nnw33470 0.0 101134
9 may, sun
sun900:00+17n33550 0.0 101331
03:00+14n45770 0.0 101477
06:00+11n459325 0.0 1016106
09:00+16nne46642 0.0 1017745
12:00+22nne56414 0.0 10161345
15:00+24nne88275 0.0 10151620
18:00+23nne910245 0.0 10151508
21:00+16nne57353 0.0 1017225
10 may, mon
mon1000:00+12n44454 0.0 101885
03:00+10n34501 0.0 101858
06:00+9n33505 0.0 101844
09:00+15ne34341 0.0 1017464
12:00+21ne34240 0.0 1016936
15:00+25nne34170 0.0 10141530
18:00+25nne77180 0.0 10131381
21:00+17n44230 0.0 101432
11 may, tue
tue1100:00+14n44300 0.0 101539
03:00+12nne33330 0.0 101424
06:00+11nne33390 0.0 101421
09:00+18ne23250 0.0 1014446
12:00+23ne23170 0.0 10121041
15:00+27nne22145 0.0 10101688
18:00+25nnw44200 0.0 1010931
21:00+17nnw43440 0.0 101141